Flag for Canada Weather past 2 weeks in Burnaby, British Columbia, Canada

Now
63 °F

More clouds than sun.


Feels Like: 63 °F
Forecast: 59 / 65 °F
Wind: 7 mph from Southeast

Location: Vancouver International Air-Port

Current Time: Sep 18, 2014 at 11:57:10 AM

Latest Report: Sep 18, 2014 at 11:00 AM


Visibility: 15 mi

Pressure: 29.78 "Hg

Humidity: 88%

Dew point: 59 °F

Location of BurnabyLocation

Historic Weather in Burnaby — Graph

°F

Burnaby temperature yesterday

Maximum temperature yesterday: 66 °F (at 11:00 AM)
Minimum temperature yesterday: 61 °F (at 5:00 AM)
Average temperature yesterday: 62 °F

Past Weeks' High & Low Weather Summary

 TemperatureHumidityPressure
High75 °F (Sep 6, 3:00 PM)100% (Sep 4, 5:00 AM)30.35 "Hg (Sep 4, 5:00 AM)
Low46 °F (Sep 11, 5:00 AM)34% (Sep 11, 10:00 AM)29.71 "Hg (Sep 17, 6:00 PM)
Average62 °F77%29.99 "Hg
* Reported Sep 3 10:00 AM — Sep 18 10:00 AM, Burnaby, Weather by CustomWeather, © 2014

Note: Actual official high and low records may vary slightly from our data, if they occured in-between our weather recording intervals... More about our weather records

Advertising

Burnaby weather history for previous 24 hours

 ConditionsComfort  
Time TempWeatherWind HumidityBarometerVisibility
10:00 AM
Sep 18
61 °FCloudy.6 mph94%29.78 "Hg15 mi
9:00 AM61 °FMostly cloudy.8 mph94%29.75 "Hg15 mi
8:49 AM61 °FMostly cloudy.9 mph94%29.75 "Hg15 mi
8:00 AM59 °FCloudy.7 mph94%29.74 "Hg12 mi
7:00 AM59 °FMostly cloudy.9 mph100%29.73 "Hg10 mi
6:00 AM59 °FMostly cloudy.5 mph100%29.72 "Hg8 mi
5:49 AM59 °FMostly cloudy.5 mph94%29.72 "Hg8 mi
5:00 AM59 °FMostly cloudy.9 mph100%29.72 "Hg8 mi
4:00 AM59 °FLight rain. Overcast.7 mph94%29.72 "Hg10 mi
3:00 AM59 °FMostly cloudy.8 mph94%29.72 "Hg12 mi
2:00 AM59 °FMostly cloudy.7 mph94%29.73 "Hg12 mi
1:00 AM61 °FLight rain. Mostly cloudy.7 mph94%29.73 "Hg12 mi
12:00 AM61 °FLight rain. Mostly cloudy.6 mph94%29.74 "Hg12 mi
11:00 PM
Sep 17
61 °FLight rain. Overcast.5 mph94%29.74 "Hg12 mi
10:00 PM61 °FLight rain. Mostly cloudy.3 mph94%29.73 "Hg12 mi
9:53 PM61 °FLight rain. Mostly cloudy.3 mph94%29.73 "Hg12 mi
9:00 PM61 °FLight rain. Mostly cloudy.7 mph94%29.73 "Hg15 mi
8:00 PM61 °FLight rain. Overcast.7 mph94%29.73 "Hg15 mi
7:00 PM63 °FLight rain. Mostly cloudy.8 mph88%29.72 "Hg15 mi
6:00 PM63 °FLight rain. Cloudy.5 mph88%29.71 "Hg20 mi
5:00 PM63 °FLight rain. Mostly cloudy.7 mph88%29.73 "Hg20 mi
4:00 PM64 °FCloudy.6 mph83%29.75 "Hg20 mi
3:00 PM63 °FLight rain. Cloudy.5 mph88%29.77 "Hg15 mi
2:00 PM63 °FLight rain. Mostly cloudy.6 mph83%29.78 "Hg15 mi
1:00 PM64 °FMostly cloudy.6 mph78%29.78 "Hg20 mi
12:00 PM64 °FMore clouds than sun.3 mph83%29.79 "Hg20 mi
11:00 AM66 °FMore clouds than sun.2 mph73%29.79 "Hg20 mi
Weather by CustomWeather, © 2014

See weather overviewHow to use our weather pages